| time (UTC) | temp C | wind direction | speed KPH | gust KPH | rain 1hr cm | rain 24hr cm | rain mn cm | humidity % | barometer mb |
| 20260902153039 | 31 | 198 | 6.4 | 11.3 | 0.00 | 0.00 | 0.00 | 75 | 1020.5 |
| 20260902151534 | 31 | 218 | 4.8 | 9.7 | 0.00 | 0.00 | 0.00 | 75 | 1020.6 |
| 20260902150030 | 30 | 227 | 4.8 | 11.3 | 0.00 | 0.00 | 0.00 | 76 | 1020.6 |
| 20260902144534 | 30 | 182 | 4.8 | 9.7 | 0.00 | 0.00 | 0.00 | 78 | 1020.6 |
| 20260902143023 | 29 | 208 | 4.8 | 9.7 | 0.00 | 0.00 | 0.00 | 80 | 1020.5 |
| 20260902141520 | 28 | 188 | 4.8 | 9.7 | 0.00 | 0.00 | 0.00 | 82 | 1020.6 |
| 20260902140017 | 27 | 207 | 4.8 | 9.7 | 0.00 | 0.00 | 0.00 | 83 | 1020.5 |
| 20260902134512 | 27 | 218 | 6.4 | 11.3 | 0.00 | 0.00 | 0.00 | 85 | 1020.6 |
| 20260902133008 | 26 | 210 | 3.2 | 9.7 | 0.00 | 0.00 | 0.00 | 87 | 1020.6 |
| 20260902131504 | 26 | 161 | 0.0 | 3.2 | 0.00 | 0.00 | 0.00 | 90 | 1020.6 |
| 20260902130002 | 25 | 161 | 0.0 | 3.2 | 0.00 | 0.00 | 0.00 | 90 | 1020.5 |
| 20260902124502 | 25 | 160 | 1.6 | 3.2 | 0.00 | 0.00 | 0.00 | 91 | 1020.4 |
| 20260902123110 | 24 | 160 | 0.0 | 3.2 | 0.00 | 0.00 | 0.00 | 92 | 1020.3 |
| 20260902121603 | 23 | 160 | 0.0 | 3.2 | 0.00 | 0.00 | 0.00 | 92 | 1020.1 |
| 20260902120056 | 23 | 160 | 3.2 | 6.4 | 0.00 | 0.00 | 0.00 | 92 | 1019.9 |
| 20260902114600 | 23 | 160 | 4.8 | 6.4 | 0.00 | 0.00 | 0.00 | 92 | 1019.7 |
| 20260902113058 | 23 | 160 | 0.0 | 3.2 | 0.00 | 0.00 | 0.00 | 91 | 1019.7 |
| 20260902111553 | 23 | 160 | 0.0 | 3.2 | 0.00 | 0.00 | 0.00 | 91 | 1019.7 |
| 20260902110052 | 23 | 160 | 1.6 | 4.8 | 0.00 | 0.00 | 0.00 | 91 | 1019.4 |
| 20260902104555 | 23 | 159 | 3.2 | 6.4 | 0.00 | 0.00 | 0.00 | 91 | 1019.3 |
| 20260902103057 | 23 | 153 | 1.6 | 4.8 | 0.00 | 0.00 | 0.00 | 91 | 1019.3 |
| 20260902101547 | 23 | 147 | 1.6 | 3.2 | 0.00 | 0.00 | 0.00 | 91 | 1019.1 |
| 20260902094545 | 24 | 145 | 3.2 | 4.8 | 0.00 | 0.00 | 0.00 | 91 | 1019.0 |
| 20260902093045 | 24 | 145 | 1.6 | 4.8 | 0.00 | 0.00 | 0.00 | 92 | 1019.0 |
| 20260902091603 | 24 | 145 | 0.0 | 1.6 | 0.00 | 0.00 | 0.00 | 92 | 1018.9 |
| 20260902090044 | 24 | 145 | 0.0 | 0.0 | 0.00 | 0.00 | 0.00 | 92 | 1018.9 |
| 20260902084545 | 24 | 145 | 0.0 | 0.0 | 0.00 | 0.00 | 0.00 | 91 | 1019.0 |
| 20260902083041 | 24 | 145 | 0.0 | 1.6 | 0.00 | 0.00 | 0.00 | 91 | 1018.9 |
| 20260902081541 | 24 | 145 | 0.0 | 3.2 | 0.00 | 0.00 | 0.00 | 91 | 1018.7 |
| 20260902080052 | 24 | 145 | 0.0 | 4.8 | 0.00 | 0.00 | 0.00 | 90 | 1018.9 |
| 20260902074538 | 25 | 144 | 1.6 | 3.2 | 0.00 | 0.00 | 0.00 | 90 | 1018.8 |
| 20260902073035 | 25 | 139 | 1.6 | 4.8 | 0.00 | 0.00 | 0.00 | 89 | 1018.9 |
| 20260902071552 | 25 | 135 | 1.6 | 3.2 | 0.00 | 0.00 | 0.00 | 89 | 1019.0 |
| 20260902070031 | 25 | 135 | 0.0 | 4.8 | 0.00 | 0.00 | 0.00 | 89 | 1019.0 |
| 20260902064530 | 25 | 135 | 3.2 | 4.8 | 0.00 | 0.00 | 0.00 | 88 | 1018.8 |
| 20260902063034 | 26 | 134 | 1.6 | 4.8 | 0.00 | 0.00 | 0.00 | 88 | 1018.9 |
| 20260902061541 | 26 | 134 | 1.6 | 3.2 | 0.00 | 0.00 | 0.00 | 88 | 1018.8 |
| 20260902060031 | 26 | 134 | 0.0 | 3.2 | 0.00 | 0.00 | 0.00 | 87 | 1018.9 |
| 20260902054534 | 26 | 134 | 1.6 | 6.4 | 0.00 | 0.00 | 0.00 | 87 | 1018.8 |
| 20260902053023 | 26 | 129 | 4.8 | 8.0 | 0.00 | 0.00 | 0.00 | 86 | 1018.7 |
| 20260902051516 | 26 | 131 | 4.8 | 8.0 | 0.00 | 0.00 | 0.00 | 87 | 1018.6 |
| 20260902050013 | 26 | 130 | 3.2 | 6.4 | 0.00 | 0.00 | 0.00 | 86 | 1018.4 |
| 20260902044516 | 26 | 123 | 3.2 | 6.4 | 0.00 | 0.00 | 0.00 | 85 | 1018.4 |
| 20260902043010 | 27 | 133 | 4.8 | 8.0 | 0.00 | 0.00 | 0.00 | 84 | 1018.3 |
| 20260902041511 | 27 | 130 | 4.8 | 6.4 | 0.00 | 0.00 | 0.00 | 83 | 1018.4 |
| 20260902040009 | 27 | 115 | 3.2 | 6.4 | 0.00 | 0.00 | 0.00 | 82 | 1018.5 |
| 20260902034509 | 27 | 110 | 4.8 | 9.7 | 0.00 | 0.00 | 0.00 | 82 | 1018.4 |
| 20260902033009 | 27 | 109 | 4.8 | 9.7 | 0.00 | 0.00 | 0.00 | 83 | 1018.6 |
| 20260902031508 | 27 | 113 | 3.2 | 6.4 | 0.00 | 0.00 | 0.00 | 82 | 1018.6 |
| 20260902030007 | 28 | 111 | 1.6 | 6.4 | 0.00 | 0.00 | 0.00 | 80 | 1018.5 |
| 20260902024508 | 29 | 111 | 4.8 | 9.7 | 0.00 | 0.00 | 0.00 | 78 | 1018.4 |
| 20260902023014 | 29 | 112 | 4.8 | 9.7 | 0.00 | 0.00 | 0.00 | 77 | 1018.4 |
| 20260902021506 | 30 | 110 | 4.8 | 6.4 | 0.00 | 0.00 | 0.00 | 75 | 1018.3 |
| 20260902020004 | 30 | 115 | 4.8 | 9.7 | 0.00 | 0.00 | 0.00 | 74 | 1018.3 |
| 20260902014504 | 31 | 109 | 6.4 | 12.9 | 0.00 | 0.00 | 0.00 | 72 | 1018.1 |
| 20260902013003 | 31 | 112 | 3.2 | 6.4 | 0.00 | 0.00 | 0.00 | 71 | 1018.2 |
| 20260902011507 | 31 | 115 | 3.2 | 6.4 | 0.00 | 0.00 | 0.00 | 72 | 1018.1 |
| 20260902010000 | 31 | 113 | 3.2 | 9.7 | 0.00 | 0.00 | 0.00 | 71 | 1018.5 |
| 20260902004602 | 32 | 114 | 4.8 | 9.7 | 0.00 | 0.00 | 0.00 | 68 | 1017.8 |
| 20260902003101 | 32 | 97 | 3.2 | 6.4 | 0.00 | 0.00 | 0.00 | 67 | 1017.8 |
| 20260902001559 | 33 | 109 | 3.2 | 6.4 | 0.00 | 0.00 | 0.00 | 65 | 1017.8 |
| 20260902000057 | 33 | 108 | 1.6 | 4.8 | 0.00 | 0.00 | 0.00 | 62 | 1017.8 |
| 20260901234556 | 34 | 107 | 1.6 | 4.8 | 0.00 | 0.00 | 0.00 | 60 | 1017.9 |
| 20260901233102 | 35 | 111 | 3.2 | 9.7 | 0.00 | 0.00 | 0.00 | 59 | 1018.0 |
| 20260901231557 | 35 | 122 | 3.2 | 9.7 | 0.00 | 0.00 | 0.00 | 57 | 1018.1 |
| 20260901230055 | 35 | 122 | 4.8 | 8.0 | 0.00 | 0.00 | 0.00 | 58 | 1018.2 |
| 20260901224556 | 35 | 127 | 6.4 | 12.9 | 0.00 | 0.00 | 0.00 | 58 | 1018.2 |
| 20260901223055 | 35 | 116 | 8.0 | 17.7 | 0.00 | 0.00 | 0.00 | 56 | 1018.0 |
| 20260901221549 | 35 | 138 | 4.8 | 12.9 | 0.00 | 0.00 | 0.00 | 55 | 1018.1 |
| 20260901220046 | 36 | 113 | 4.8 | 14.5 | 0.00 | 0.00 | 0.00 | 53 | 1018.1 |
| 20260901214546 | 35 | 178 | 4.8 | 14.5 | 0.00 | 0.00 | 0.00 | 54 | 1018.2 |
| 20260901213045 | 36 | 152 | 8.0 | 16.1 | 0.00 | 0.00 | 0.00 | 54 | 1018.0 |
| 20260901211544 | 36 | 170 | 6.4 | 16.1 | 0.00 | 0.00 | 0.00 | 56 | 1018.2 |
| 20260901210043 | 35 | 146 | 4.8 | 16.1 | 0.00 | 0.00 | 0.00 | 55 | 1018.2 |
| 20260901204541 | 36 | 122 | 8.0 | 17.7 | 0.00 | 0.00 | 0.00 | 55 | 1018.3 |
| 20260901203043 | 36 | 186 | 8.0 | 16.1 | 0.00 | 0.00 | 0.00 | 54 | 1018.3 |
| 20260901201539 | 36 | 114 | 8.0 | 17.7 | 0.00 | 0.00 | 0.00 | 54 | 1018.4 |
| 20260901200044 | 36 | 165 | 6.4 | 16.1 | 0.00 | 0.00 | 0.00 | 57 | 1018.5 |
| 20260901194551 | 35 | 213 | 9.7 | 16.1 | 0.00 | 0.00 | 0.00 | 56 | 1018.7 |
| 20260901193035 | 35 | 177 | 6.4 | 17.7 | 0.00 | 0.00 | 0.00 | 54 | 1018.9 |
| 20260901191535 | 35 | 226 | 6.4 | 16.1 | 0.00 | 0.00 | 0.00 | 57 | 1019.2 |
| 20260901190043 | 35 | 151 | 0.0 | 8.0 | 0.00 | 0.00 | 0.00 | 56 | 1019.3 |
| 20260901184532 | 36 | 157 | 6.4 | 20.9 | 0.00 | 0.00 | 0.00 | 56 | 1019.4 |
| 20260901183028 | 35 | 148 | 4.8 | 14.5 | 0.00 | 0.00 | 0.00 | 59 | 1019.7 |
| 20260901181535 | 35 | 190 | 8.0 | 17.7 | 0.00 | 0.00 | 0.00 | 60 | 1019.8 |
| 20260901180033 | 34 | 236 | 6.4 | 12.9 | 0.00 | 0.00 | 0.00 | 61 | 1019.9 |
| 20260901174525 | 35 | 236 | 4.8 | 11.3 | 0.00 | 0.00 | 0.00 | 60 | 1020.1 |
| 20260901173022 | 34 | 240 | 9.7 | 16.1 | 0.00 | 0.00 | 0.00 | 61 | 1020.2 |
| 20260901171521 | 33 | 271 | 9.7 | 16.1 | 0.00 | 0.00 | 0.00 | 61 | 1020.5 |
| 20260901170028 | 33 | 197 | 8.0 | 16.1 | 0.00 | 0.00 | 0.00 | 64 | 1020.8 |
| 20260901164516 | 33 | 255 | 3.2 | 14.5 | 0.00 | 0.00 | 0.00 | 63 | 1020.8 |
| 20260901163018 | 33 | 190 | 3.2 | 14.5 | 0.00 | 0.00 | 0.00 | 66 | 1020.9 |
| 20260901161509 | 32 | 215 | 8.0 | 16.1 | 0.00 | 0.00 | 0.00 | 67 | 1021.1 |
| 20260901160005 | 32 | 248 | 8.0 | 14.5 | 0.00 | 0.00 | 0.00 | 70 | 1021.1 |
| 20260901154501 | 32 | 222 | 9.7 | 17.7 | 0.00 | 0.00 | 0.00 | 70 | 1021.3 |